Change the Weather History Date:

Friday, February 15, 2013

  Actual Average Record
Temperature  
Mean Temperature 40 °F -  
Max Temperature 66 °F 65 °F 75 °F (2000)
Min Temperature 15 °F 49 °F 15 °F (2013)
Degree Days  
Heating Degree Days 24    
Moisture  
Dew Point 39 °F    
Average Humidity 74    
Maximum Humidity 95    
Minimum Humidity 32    
Precipitation  
Precipitation 0.00 in - - ()
Sea Level Pressure  
Sea Level Pressure 30.17 in    
Wind  
Wind Speed 2 mph (NNW)    
Max Wind Speed 15 mph    
Max Gust Speed 23 mph    
Visibility 10 miles    
Events      
Averages and records for this station are not official NWS values.
T = Trace of Precipitation, MM = Missing Value Source: NWS Daily Summary

Daily Weather History Graph

Daily Weather History Graph

Search for Another Location

Airport or City:

Trip Planner

Search our weather history database for the weather conditions in past years. The results will help you decide how hot, cold, wet, or windy it might be!

Date:

Astronomy

Feb. 15, 2013 Rise Set
Actual Time 6:52 AM CST 6:01 PM CST
Civil Twilight 6:27 AM CST 6:25 PM CST
Nautical Twilight 5:59 AM CST 6:54 PM CST
Astronomical Twilight 5:31 AM CST 7:21 PM CST
Moon 9:56 AM CST (2/15) 11:32 PM CST (2/15)
Length of Visible Light 11h 57m
Length of Day
11h 08m
Waxing Crescent, 30% of the Moon is Illuminated
Feb 15
Waxing Crescent
Feb 17
First Quarter
Feb 25
Full
Mar 4
Last Quarter
Mar 11
New

Hourly Weather History & Observations

Time (CST) Temp. Windchill Dew Point Humidity Pressure Visibility Wind Dir Wind Speed Gust Speed Precip Events Conditions
12:15 AM 45.0 °F - 42.8 °F 92% 30.13 in 10.0 mi Calm Calm - N/A   Clear
12:35 AM 45.1 °F - 43.2 °F 93% 30.14 in 10.0 mi Calm Calm - N/A   Clear
12:55 AM 44.4 °F - 42.3 °F 92% 30.13 in 10.0 mi Calm Calm - N/A   Clear
1:15 AM 43.7 °F - 41.9 °F 93% 30.13 in 10.0 mi Calm Calm - N/A   Clear
1:35 AM 43.3 °F - 41.2 °F 92% 30.13 in 10.0 mi Calm Calm - N/A   Clear
1:55 AM 42.8 °F - 41.0 °F 93% 30.13 in 10.0 mi Calm Calm - N/A   Clear
2:15 AM 42.3 °F - 40.5 °F 93% 30.13 in 10.0 mi Calm Calm - N/A   Clear
2:35 AM 42.6 °F - 41.0 °F 94% 30.13 in 10.0 mi Calm Calm - N/A   Clear
2:55 AM 42.4 °F - 40.6 °F 93% 30.12 in 10.0 mi Calm Calm - N/A   Clear
3:15 AM 41.9 °F - 40.3 °F 94% 30.12 in 10.0 mi Calm Calm - N/A   Clear
3:35 AM 41.4 °F - 39.7 °F 94% 30.12 in 10.0 mi Calm Calm - N/A   Clear
3:55 AM 41.5 °F - 39.7 °F 93% 30.13 in 10.0 mi Calm Calm - N/A   Clear
4:15 AM 41.4 °F - 39.6 °F 93% 30.13 in 10.0 mi Calm Calm - N/A   Clear
4:35 AM 41.4 °F - 39.6 °F 93% 30.14 in 10.0 mi Calm Calm - N/A   Clear
4:55 AM 40.5 °F - 38.7 °F 93% 30.14 in 7.0 mi Calm Calm - N/A   Clear
5:15 AM 41.5 °F - 40.1 °F 95% 30.14 in 10.0 mi Calm Calm - N/A   Clear
5:35 AM 41.2 °F - 39.4 °F 93% 30.15 in 10.0 mi Calm Calm - N/A   Clear
5:55 AM 41.0 °F - 39.2 °F 93% 30.15 in 10.0 mi Calm Calm - N/A   Clear
6:00 AM 41.0 °F - 39.2 °F 93% 30.16 in 10.0 mi Calm Calm - N/A   Clear
6:55 AM 39.2 °F - 37.4 °F 93% 30.18 in 10.0 mi Calm Calm - N/A   Clear
7:50 AM 44.6 °F - 42.8 °F 93% 30.20 in 10.0 mi Calm Calm - N/A   Clear
8:55 AM 53.6 °F - 46.4 °F 77% 30.20 in 10.0 mi Calm Calm - N/A   Clear
9:50 AM 57.2 °F - 44.6 °F 63% 30.22 in 10.0 mi Calm Calm - N/A   Clear
10:50 AM 60.8 °F - 42.8 °F 52% 30.22 in 10.0 mi NW 8.1 mph - N/A   Clear
11:45 AM 15.8 °F 5.1 °F 8.6 °F 73% 30.11 in 10.0 mi WNW 8.1 mph - N/A   Clear
11:50 AM 62.6 °F - 39.2 °F 42% 30.21 in 10.0 mi NW 5.8 mph - N/A   Clear
12:55 PM 64.4 °F - 37.4 °F 37% 30.18 in 10.0 mi North 5.8 mph - N/A   Clear
1:58 PM 64.4 °F - 35.6 °F 34% 30.15 in 10.0 mi NNE 5.8 mph - N/A   Scattered Clouds
2:50 PM 66.2 °F - 35.6 °F 32% 30.13 in 10.0 mi NW 4.6 mph - N/A   Scattered Clouds
3:58 PM 64.4 °F - 35.6 °F 34% 30.12 in 10.0 mi North 5.8 mph - N/A   Scattered Clouds
4:50 PM 64.4 °F - 35.6 °F 34% 30.12 in 10.0 mi NNW 5.8 mph - N/A   Scattered Clouds
5:50 PM 62.6 °F - 37.4 °F 39% 30.13 in 10.0 mi NNW 9.2 mph 16.1 mph N/A   Scattered Clouds
6:50 PM 57.2 °F - 39.2 °F 51% 30.16 in 10.0 mi NNW 6.9 mph - N/A   Scattered Clouds
7:50 PM 53.6 °F - 39.2 °F 58% 30.21 in 10.0 mi North 11.5 mph 23.0 mph N/A   Mostly Cloudy
8:58 PM 51.8 °F - 37.4 °F 58% 30.24 in 10.0 mi NNW 11.5 mph 18.4 mph N/A   Overcast
9:45 PM 51.8 °F - 37.4 °F 58% 30.25 in 10.0 mi North 10.4 mph - N/A   Overcast
10:15 PM 50.9 °F - 39.2 °F 64% 30.26 in 10.0 mi NNW 15.0 mph 18.4 mph N/A   Overcast
10:35 PM 50.0 °F - 40.5 °F 70% 30.27 in 10.0 mi NNW 8.1 mph 16.1 mph N/A   Overcast
10:55 PM 49.5 °F - 40.8 °F 72% 30.27 in 10.0 mi North 6.9 mph - N/A   Overcast
11:15 PM 49.1 °F - 40.6 °F 73% 30.27 in 10.0 mi NNW 5.8 mph - N/A   Overcast
11:35 PM 49.5 °F - 40.3 °F 71% 30.28 in 10.0 mi NW 8.1 mph - N/A   Overcast
11:55 PM 49.5 °F - 37.8 °F 64% 30.28 in 10.0 mi NNW 8.1 mph - N/A   Overcast